#timestamp,LO_Frequency,Hit,StdDev 
1697662815.4,286046996.9,P
1697662835.2,286046996.6,P
1697662855.0,286046999.2,N
1697662855.9,286046999.2,N
1697662875.8,286046998.7,N
1697662895.6,286046999.5,N
1697662915.4,286046999.6,N
1697662935.3,286046997.6,N
1697662955.1,286046998.0,N
1697662975.9,286046995.3,Y
1697662995.7,286046996.6,P
1697663015.5,286046999.5,N
1697663035.4,286046999.5,N
1697663055.2,286046999.2,N
1697663075.1,286046999.0,N
1697663076.0,286046999.0,N
1697663095.8,286046998.9,N
1697663115.6,286046999.4,N
1697663135.5,286046997.3,Y
1697663155.3,286046998.9,P
1697663175.2,286046999.1,P
1697663195.9,286046999.6,P
1697663215.7,286046996.6,Y
1697663235.6,286046998.7,P
1697663255.4,286046998.4,P
1697663275.2,286047000.6,N
1697663295.1,286046998.2,N
1697663296.0,286046998.2,N
1697663315.8,286046999.5,N
1697663335.7,286046998.8,N
1697663355.5,286047001.1,N
1697663375.3,286046998.1,N
1697663395.2,286047000.8,N
1697663415.0,286047000.4,N
1697663415.9,286047000.4,N
1697663435.7,286046998.1,N
1697663455.6,286046998.2,N
1697663475.4,286046998.2,N
1697663495.3,286047001.1,N
1697663515.1,286047001.2,N
1697663516.0,286047001.2,N
1697663535.8,286047000.9,N
1697663555.7,286047000.5,N
1697663575.5,286047000.6,N
1697663595.4,286046998.4,N
1697663615.2,286046998.3,N
1697663635.0,286046998.5,N
1697663635.9,286046998.5,N
1697663655.8,286047000.3,N
1697663675.6,286046999.8,N
1697663695.4,286047002.8,N
1697663715.3,286046999.8,N
1697663735.1,286047000.0,N
1697663755.9,286047001.1,N
1697663775.7,286046998.5,N
1697663795.5,286046998.3,N
1697663815.4,286046998.4,N
1697663835.2,286046998.4,N
1697663855.0,286046998.4,N
1697663855.9,286046998.4,N
1697663875.8,286046999.5,N
1697663895.6,286046998.8,N
1697663915.5,286047000.8,N
1697663935.3,286046998.8,N
1697663955.1,286046999.2,N
1697663975.9,286046996.8,N
1697663995.7,286046996.8,N
1697664015.6,286046996.7,N
1697664035.4,286046997.2,N
1697664055.2,286046996.7,N
1697664075.1,286046996.8,N
1697664076.0,286046996.8,N
1697664095.8,286046995.3,Y
1697664115.7,286046998.7,P
1697664135.5,286046998.2,P
1697664155.3,286046998.3,P
1697664175.2,286047000.7,N
1697664195.0,286047001.2,N
1697664195.9,286047001.2,N
1697664215.7,286046998.6,N
1697664235.6,286047000.2,N
1697664255.4,286047000.7,N
1697664275.3,286047001.1,N
1697664295.1,286047001.2,N
1697664315.8,286047000.5,N
1697664335.7,286047000.2,N
1697664355.5,286047001.0,N
1697664375.4,286046999.0,N
1697664395.2,286046996.6,Y
1697664415.0,286046999.0,P
1697664415.9,286046999.0,N
1697664435.8,286046998.5,P
1697664455.6,286046999.4,N
1697664475.5,286046998.5,Y
1697664495.3,286047001.1,P
1697664515.1,286047000.0,N
1697664535.9,286047001.2,N
1697664555.7,286046999.4,N
1697664575.5,286046996.5,Y
1697664595.4,286046997.0,P
1697664615.2,286046996.9,N
1697664635.1,286046999.3,N
1697664636.0,286046999.3,N
1697664655.8,286046998.9,N
1697664675.6,286046999.3,N
1697664695.5,286046999.3,N
1697664715.3,286046999.6,N
1697664735.1,286046999.4,N
1697664755.9,286046999.5,N
1697664775.7,286046999.4,N
1697664795.6,286046999.2,N
1697664815.4,286046999.0,N
1697664835.2,286046998.3,N
1697664855.1,286046999.0,N
1697664856.0,286046999.0,N
1697664875.8,286046999.1,N
1697664895.7,286046998.6,N
1697664915.5,286047000.2,N
1697664935.3,286047000.8,N
1697664955.2,286046998.3,N
1697664975.9,286047000.8,N
1697664995.7,286046998.2,N
1697665015.6,286046999.5,N
1697665035.4,286046999.0,N
1697665055.3,286046997.2,Y
1697665075.1,286046999.3,P
1697665095.8,286046998.4,P
1697665115.7,286047001.2,P
1697665135.5,286047001.0,N
1697665155.4,286047000.4,N
1697665175.2,286047001.1,N
1697665195.0,286047001.2,N
1697665195.9,286047001.2,N
1697665215.8,286047001.2,N
1697665235.6,286047000.8,N
1697665255.4,286047000.7,N
1697665275.3,286046998.2,N
1697665295.1,286046998.4,N
1697665315.9,286046998.5,N
1697665335.7,286047001.2,N
1697665355.5,286047000.7,N
1697665375.4,286047001.1,N
1697665395.2,286047000.4,N
1697665415.0,286047002.6,N
1697665415.9,286047002.6,N
1697665435.8,286047002.8,N
1697665455.6,286047002.8,N
1697665475.5,286047000.3,N
1697665495.3,286047002.8,N
1697665515.2,286047000.1,N
1697665535.9,286047002.8,N
1697665555.7,286047002.8,N
1697665575.6,286047001.6,N
1697665595.4,286047002.1,N
1697665615.2,286047002.1,N
1697665635.1,286047001.9,N
1697665636.0,286047001.9,N
1697665655.8,286047001.4,N
1697665675.7,286047002.2,N
1697665695.5,286047001.9,N
1697665715.3,286046999.7,N
1697665735.2,286047002.6,N
1697665755.0,286047002.1,N
1697665755.9,286047002.1,N
1697665775.8,286047002.5,N
1697665795.6,286047002.6,N
1697665815.4,286047001.4,N
1697665835.3,286047004.3,Y
1697665855.1,286047000.1,P
1697665875.9,286047002.4,P
1697665895.7,286047002.5,N
1697665915.5,286047002.4,N
1697665935.4,286046999.9,N
1697665955.2,286047002.1,N
1697665975.0,286047001.4,N
1697665976.0,286047001.4,N
1697665995.8,286047004.4,Y
1697666015.6,286047000.5,P
1697666035.5,286047000.1,N
1697666055.3,286047002.5,P
1697666075.1,286047002.2,N
1697666095.9,286047002.4,N
1697666115.7,286046999.7,N
1697666135.6,286047000.5,N
1697666155.4,286046999.8,N
1697666175.2,286047002.7,N
1697666195.1,286047000.4,N
1697666196.0,286047000.4,N
1697666215.8,286047000.0,N
1697666235.6,286047000.1,N
1697666255.7,286047000.9,N
1697666275.5,286046999.8,N
1697666295.3,286047002.0,N
1697666315.2,286047002.1,N
1697666335.0,286047002.2,N
1697666335.9,286047002.2,N
1697666355.8,286047002.0,N
1697666375.6,286047001.8,N
1697666395.4,286047002.7,N
